BER211 EDDB-LEVD

Flight info

Callsign BER211
Flight time 2h 36m
Altitude 30000
Route KISUC1Q KISUC Z117 ODLUN DCT GASKA DCT NATOR N869 NINTU DCT MEBAK H38 RUSIT UY305 ESIDA DCT FISTO DCT URUNA P181 NEA DCT
Aircraft B738/M-SDE2E3FGHIRWXY/LB1

Departure

Time 2026-05-07 15:11
Airport Berlin Brandenburg Airport (EDDB)

Arrival

Time 2026-05-07 17:48
Airport Valladolid Airport (LEVD)
Time Latitude Longitude Altitude Speed Heading
2026-05-07 14:26 52.36183 13.50260 165 ft 0 kts 249°
2026-05-07 15:00 52.36186 13.50271 165 ft 2 kts 249°
2026-05-07 15:00 52.36191 13.50294 165 ft 2 kts 249°
2026-05-07 15:01 52.36197 13.50317 165 ft 2 kts 249°
2026-05-07 15:01 52.36201 13.50333 165 ft 0 kts 248°
2026-05-07 15:01 52.36208 13.50353 165 ft 2 kts 224°
2026-05-07 15:01 52.36220 13.50367 165 ft 2 kts 201°
2026-05-07 15:02 52.36235 13.50372 165 ft 2 kts 176°
2026-05-07 15:02 52.36245 13.50369 165 ft 0 kts 161°
2026-05-07 15:02 52.36251 13.50365 165 ft 0 kts 158°
2026-05-07 15:04 52.36247 13.50368 165 ft 2 kts 158°
2026-05-07 15:04 52.36226 13.50381 165 ft 3 kts 158°
2026-05-07 15:04 52.36200 13.50398 165 ft 4 kts 159°
2026-05-07 15:05 52.36166 13.50419 165 ft 6 kts 160°
2026-05-07 15:05 52.36113 13.50451 165 ft 10 kts 160°
2026-05-07 15:05 52.36034 13.50502 165 ft 14 kts 159°
2026-05-07 15:05 52.35930 13.50569 165 ft 18 kts 158°
2026-05-07 15:06 52.35801 13.50631 165 ft 20 kts 196°
2026-05-07 15:06 52.35725 13.50414 165 ft 25 kts 249°
2026-05-07 15:06 52.35653 13.50112 165 ft 32 kts 249°
2026-05-07 15:06 52.35566 13.49745 165 ft 35 kts 249°
2026-05-07 15:07 52.35477 13.49372 165 ft 34 kts 249°
2026-05-07 15:07 52.35390 13.49005 165 ft 34 kts 247°
2026-05-07 15:07 52.35307 13.48650 165 ft 33 kts 249°
2026-05-07 15:07 52.35223 13.48307 165 ft 31 kts 249°
2026-05-07 15:08 52.35151 13.48001 165 ft 26 kts 249°
2026-05-07 15:08 52.35089 13.47742 165 ft 22 kts 250°
2026-05-07 15:08 52.35040 13.47531 165 ft 17 kts 249°
2026-05-07 15:08 52.34998 13.47359 165 ft 14 kts 249°
2026-05-07 15:09 52.34965 13.47219 165 ft 12 kts 250°
2026-05-07 15:09 52.34933 13.47084 165 ft 12 kts 248°
2026-05-07 15:09 52.34900 13.46949 165 ft 13 kts 249°
2026-05-07 15:09 52.34863 13.46792 165 ft 15 kts 249°
2026-05-07 15:10 52.34787 13.46692 165 ft 16 kts 159°
2026-05-07 15:10 52.34681 13.46789 165 ft 18 kts 157°
2026-05-07 15:10 52.34572 13.46891 165 ft 17 kts 105°
2026-05-07 15:10 52.34606 13.47106 165 ft 26 kts 69°
2026-05-07 15:11 52.34725 13.47603 165 ft 78 kts 69°
2026-05-07 15:11 52.35003 13.48769 166 ft 139 kts 69°
2026-05-07 15:11 52.35373 13.50391 593 ft 155 kts 72°
2026-05-07 15:11 52.35557 13.52138 1131 ft 162 kts 99°
2026-05-07 15:12 52.35133 13.53812 1734 ft 166 kts 127°
2026-05-07 15:12 52.34165 13.54956 2120 ft 182 kts 161°
2026-05-07 15:12 52.32901 13.54851 2568 ft 193 kts 200°
2026-05-07 15:12 52.31743 13.53670 3081 ft 203 kts 212°
2026-05-07 15:13 52.30604 13.52324 3748 ft 203 kts 214°
2026-05-07 15:13 52.29475 13.50928 4367 ft 207 kts 215°
2026-05-07 15:13 52.28293 13.49421 4698 ft 226 kts 217°
2026-05-07 15:13 52.27374 13.47307 5305 ft 236 kts 245°
2026-05-07 15:14 52.27018 13.44631 5784 ft 254 kts 262°
2026-05-07 15:14 52.26859 13.41660 6290 ft 267 kts 263°
2026-05-07 15:14 52.26719 13.38583 6960 ft 274 kts 264°
2026-05-07 15:14 52.26605 13.35496 7737 ft 276 kts 264°
2026-05-07 15:15 52.26501 13.32349 8384 ft 282 kts 264°
2026-05-07 15:15 52.26400 13.29171 9233 ft 279 kts 264°
2026-05-07 15:15 52.26306 13.26048 9956 ft 280 kts 264°
2026-05-07 15:15 52.26110 13.22888 10457 ft 288 kts 257°
2026-05-07 15:16 52.25541 13.19630 10701 ft 304 kts 247°
2026-05-07 15:16 52.24642 13.16513 11339 ft 306 kts 240°
2026-05-07 15:16 52.23570 13.13490 11761 ft 316 kts 239°
2026-05-07 15:16 52.22417 13.10469 12446 ft 315 kts 236°
2026-05-07 15:17 52.21220 13.07474 13220 ft 312 kts 236°
2026-05-07 15:17 52.20039 13.04556 13856 ft 313 kts 235°
2026-05-07 15:17 52.18845 13.01613 14504 ft 312 kts 235°
2026-05-07 15:17 52.17655 12.98685 15201 ft 309 kts 234°
2026-05-07 15:18 52.16537 12.95725 15706 ft 314 kts 243°
2026-05-07 15:18 52.15932 12.92279 16317 ft 316 kts 253°
2026-05-07 15:18 52.15443 12.88800 16832 ft 318 kts 253°
2026-05-07 15:18 52.14952 12.85309 17365 ft 318 kts 253°
2026-05-07 15:19 52.14458 12.81803 17878 ft 319 kts 253°
2026-05-07 15:19 52.13957 12.78264 18387 ft 319 kts 253°
2026-05-07 15:19 52.13459 12.74756 18874 ft 320 kts 253°
2026-05-07 15:19 52.12957 12.71225 19348 ft 320 kts 254°
2026-05-07 15:20 52.12457 12.67717 19807 ft 321 kts 254°
2026-05-07 15:20 52.11954 12.64192 20267 ft 321 kts 254°
2026-05-07 15:20 52.11449 12.60667 20699 ft 321 kts 254°
2026-05-07 15:20 52.10941 12.57126 21111 ft 322 kts 255°
2026-05-07 15:21 52.10432 12.53591 21523 ft 323 kts 255°
2026-05-07 15:21 52.09913 12.49989 21921 ft 323 kts 255°
2026-05-07 15:21 52.09404 12.46468 22304 ft 324 kts 255°
2026-05-07 15:21 52.08885 12.42881 22674 ft 325 kts 255°
2026-05-07 15:22 52.08368 12.39322 23035 ft 325 kts 256°
2026-05-07 15:22 52.07848 12.35742 23392 ft 326 kts 256°
2026-05-07 15:22 52.07044 12.32273 23676 ft 328 kts 241°
2026-05-07 15:22 52.05817 12.29203 24061 ft 329 kts 238°
2026-05-07 15:23 52.04487 12.26107 24325 ft 332 kts 237°
2026-05-07 15:23 52.03151 12.23114 24661 ft 333 kts 237°
2026-05-07 15:23 52.01768 12.20060 24940 ft 335 kts 237°
2026-05-07 15:23 52.00380 12.17023 25257 ft 336 kts 237°
2026-05-07 15:24 51.98986 12.13980 25532 ft 337 kts 237°
2026-05-07 15:24 51.97592 12.10949 25797 ft 339 kts 237°
2026-05-07 15:24 51.96173 12.07867 26071 ft 340 kts 238°
2026-05-07 15:24 51.94753 12.04790 26315 ft 342 kts 238°
2026-05-07 15:25 51.93328 12.01702 26605 ft 342 kts 238°
2026-05-07 15:25 51.91895 11.98601 26845 ft 344 kts 238°
2026-05-07 15:25 51.90457 11.95493 27076 ft 346 kts 239°
2026-05-07 15:25 51.89015 11.92383 27311 ft 347 kts 239°
2026-05-07 15:26 51.87559 11.89246 27536 ft 349 kts 239°
2026-05-07 15:26 51.86088 11.86090 27758 ft 351 kts 238°
2026-05-07 15:26 51.84307 11.83363 27935 ft 365 kts 226°
2026-05-07 15:26 51.82252 11.80942 28142 ft 368 kts 224°
2026-05-07 15:27 51.80153 11.78594 28337 ft 371 kts 224°
2026-05-07 15:27 51.78004 11.76243 28536 ft 373 kts 223°
2026-05-07 15:27 51.75846 11.73905 28738 ft 374 kts 223°
2026-05-07 15:27 51.73706 11.71597 28932 ft 375 kts 224°
2026-05-07 15:28 51.71522 11.69245 29126 ft 376 kts 224°
2026-05-07 15:28 51.69357 11.66919 29316 ft 378 kts 224°
2026-05-07 15:28 51.67183 11.64587 29506 ft 379 kts 224°
2026-05-07 15:28 51.64972 11.62217 29698 ft 379 kts 224°
2026-05-07 15:29 51.62803 11.59894 29885 ft 380 kts 224°
2026-05-07 15:29 51.60598 11.57537 30055 ft 382 kts 224°
2026-05-07 15:29 51.56136 11.52767 30109 ft 391 kts 224°
2026-05-07 15:30 51.51562 11.47895 30111 ft 402 kts 224°
2026-05-07 15:30 51.46853 11.42895 30117 ft 411 kts 224°
2026-05-07 15:31 51.42039 11.37796 30112 ft 416 kts 223°
2026-05-07 15:31 51.37176 11.32659 30100 ft 423 kts 223°
2026-05-07 15:32 51.32269 11.27488 30083 ft 424 kts 223°
2026-05-07 15:32 51.27375 11.22345 30053 ft 423 kts 223°
2026-05-07 15:33 51.22406 11.17135 30050 ft 423 kts 223°
2026-05-07 15:33 51.17415 11.11916 30049 ft 423 kts 223°
2026-05-07 15:34 51.12528 11.06819 30049 ft 423 kts 223°
2026-05-07 15:34 51.07626 11.01718 30048 ft 423 kts 223°
2026-05-07 15:35 51.02692 10.96599 30047 ft 423 kts 223°
2026-05-07 15:35 50.97749 10.91481 30054 ft 430 kts 223°
2026-05-07 15:36 50.92734 10.86304 30049 ft 435 kts 222°
2026-05-07 15:36 50.87644 10.81064 30042 ft 438 kts 222°
2026-05-07 15:37 50.82531 10.75816 30041 ft 438 kts 222°
2026-05-07 15:37 50.77456 10.70620 30041 ft 437 kts 222°
2026-05-07 15:38 50.72340 10.65394 30042 ft 437 kts 222°
2026-05-07 15:38 50.67270 10.60228 30041 ft 438 kts 222°
2026-05-07 15:39 50.62138 10.55015 30039 ft 437 kts 222°
2026-05-07 15:39 50.57026 10.49833 30041 ft 438 kts 222°
2026-05-07 15:40 50.51927 10.44679 30040 ft 438 kts 222°
2026-05-07 15:40 50.46801 10.39511 30039 ft 437 kts 222°
2026-05-07 15:41 50.41697 10.34380 30042 ft 438 kts 221°
2026-05-07 15:41 50.36577 10.29246 30048 ft 439 kts 221°
2026-05-07 15:42 50.31345 10.24229 30044 ft 441 kts 220°
2026-05-07 15:42 50.26116 10.19299 30041 ft 441 kts 220°
2026-05-07 15:43 50.20852 10.14355 30040 ft 441 kts 220°
2026-05-07 15:43 50.15628 10.09458 30040 ft 441 kts 220°
2026-05-07 15:44 50.10344 10.04519 30040 ft 441 kts 220°
2026-05-07 15:44 50.05107 9.99636 30043 ft 442 kts 220°
2026-05-07 15:45 49.99826 9.94725 30046 ft 441 kts 220°
2026-05-07 15:45 49.94510 9.89794 30048 ft 441 kts 220°
2026-05-07 15:46 49.86498 9.82387 30043 ft 442 kts 220°
2026-05-07 15:47 49.81022 9.77341 30043 ft 441 kts 220°
2026-05-07 15:47 49.75696 9.72446 30042 ft 441 kts 220°
2026-05-07 15:48 49.70381 9.67574 30041 ft 441 kts 220°
2026-05-07 15:48 49.65105 9.62750 30041 ft 440 kts 220°
2026-05-07 15:49 49.59831 9.57939 30041 ft 441 kts 220°
2026-05-07 15:49 49.54562 9.53147 30040 ft 440 kts 220°
2026-05-07 15:50 49.49294 9.48366 30041 ft 441 kts 220°
2026-05-07 15:50 49.43996 9.43570 30041 ft 441 kts 220°
2026-05-07 15:51 49.38727 9.38813 30039 ft 441 kts 220°
2026-05-07 15:51 49.33469 9.34078 30044 ft 442 kts 219°
2026-05-07 15:52 49.28161 9.29309 30044 ft 443 kts 219°
2026-05-07 15:52 49.22848 9.24551 30040 ft 442 kts 219°
2026-05-07 15:53 49.17572 9.19834 30035 ft 442 kts 219°
2026-05-07 15:53 49.12280 9.15115 30029 ft 443 kts 219°
2026-05-07 15:54 49.06951 9.10372 30026 ft 449 kts 219°
2026-05-07 15:54 49.01561 9.05588 30026 ft 453 kts 219°
2026-05-07 15:55 48.96093 9.00748 30025 ft 458 kts 218°
2026-05-07 15:55 48.90610 8.95914 30022 ft 455 kts 218°
2026-05-07 15:56 48.85096 8.91061 30018 ft 453 kts 218°
2026-05-07 15:56 48.79648 8.86278 30017 ft 451 kts 218°
2026-05-07 15:57 48.74217 8.81523 30023 ft 451 kts 218°
2026-05-07 15:57 48.68811 8.76799 30028 ft 451 kts 218°
2026-05-07 15:58 48.63390 8.72075 30032 ft 451 kts 218°
2026-05-07 15:58 48.57959 8.67355 30032 ft 451 kts 218°
2026-05-07 15:59 48.52475 8.62599 30026 ft 451 kts 218°
2026-05-07 15:59 48.47022 8.57883 30022 ft 451 kts 218°
2026-05-07 16:00 48.41587 8.53194 30026 ft 451 kts 218°
2026-05-07 16:00 48.36172 8.48533 30031 ft 451 kts 218°
2026-05-07 16:01 48.30721 8.43854 30036 ft 451 kts 218°
2026-05-07 16:01 48.25300 8.39212 30041 ft 451 kts 218°
2026-05-07 16:02 48.19851 8.34557 30043 ft 451 kts 217°
2026-05-07 16:02 48.14349 8.29971 30052 ft 453 kts 216°
2026-05-07 16:03 48.08821 8.25475 30047 ft 453 kts 216°
2026-05-07 16:03 48.03304 8.21003 30047 ft 453 kts 216°
2026-05-07 16:04 47.97778 8.16534 30048 ft 453 kts 216°
2026-05-07 16:04 47.92257 8.12080 30041 ft 454 kts 216°
2026-05-07 16:05 47.86738 8.07638 30026 ft 454 kts 216°
2026-05-07 16:05 47.81198 8.03191 30019 ft 454 kts 216°
2026-05-07 16:06 47.75652 7.98750 30018 ft 454 kts 216°
2026-05-07 16:06 47.70116 7.94326 30018 ft 454 kts 216°
2026-05-07 16:07 47.64554 7.89894 30018 ft 454 kts 216°
2026-05-07 16:07 47.58995 7.85474 30018 ft 454 kts 216°
2026-05-07 16:08 47.53445 7.81073 30017 ft 454 kts 216°
2026-05-07 16:08 47.47900 7.76686 30017 ft 454 kts 216°
2026-05-07 16:09 47.42376 7.72326 30017 ft 453 kts 216°
2026-05-07 16:09 47.36819 7.67950 30017 ft 454 kts 216°
2026-05-07 16:10 47.31305 7.63529 29987 ft 448 kts 221°
2026-05-07 16:10 47.29003 7.60587 30003 ft 435 kts 234°
2026-05-07 16:10 47.27178 7.57075 30013 ft 430 kts 240°
2026-05-07 16:11 47.23533 7.50104 30006 ft 432 kts 238°
2026-05-07 16:11 47.19803 7.43166 29988 ft 431 kts 238°
2026-05-07 16:12 47.16096 7.36308 29988 ft 432 kts 238°
2026-05-07 16:12 47.12362 7.29414 29997 ft 433 kts 237°
2026-05-07 16:13 47.08617 7.22515 29997 ft 432 kts 237°
2026-05-07 16:13 47.04850 7.15590 30000 ft 432 kts 237°
2026-05-07 16:14 47.01087 7.08690 30012 ft 435 kts 237°
2026-05-07 16:14 46.97316 7.01796 30051 ft 439 kts 236°
2026-05-07 16:15 46.93484 6.94810 30020 ft 442 kts 236°
2026-05-07 16:15 46.89615 6.87779 30021 ft 446 kts 235°
2026-05-07 16:16 46.85722 6.80723 30017 ft 448 kts 235°
2026-05-07 16:16 46.81808 6.73648 30017 ft 448 kts 235°
2026-05-07 16:17 46.77895 6.66588 30017 ft 448 kts 235°
2026-05-07 16:17 46.73999 6.59577 30016 ft 448 kts 235°
2026-05-07 16:18 46.69936 6.52689 30015 ft 449 kts 233°
2026-05-07 16:18 46.65827 6.45912 30007 ft 449 kts 233°
2026-05-07 16:19 46.61680 6.39093 29997 ft 449 kts 233°
2026-05-07 16:19 46.57532 6.32292 29997 ft 450 kts 232°
2026-05-07 16:20 46.53369 6.25479 29994 ft 450 kts 232°
2026-05-07 16:20 46.49202 6.18678 29994 ft 450 kts 232°
2026-05-07 16:21 46.45061 6.11939 29994 ft 450 kts 232°
2026-05-07 16:21 46.40913 6.05203 29994 ft 450 kts 232°
2026-05-07 16:22 46.36745 5.98451 29993 ft 450 kts 232°
2026-05-07 16:22 46.32580 5.91721 29993 ft 450 kts 232°
2026-05-07 16:23 46.28728 5.84680 30005 ft 446 kts 239°
2026-05-07 16:23 46.25227 5.77348 29997 ft 446 kts 239°
2026-05-07 16:24 46.21718 5.69966 29990 ft 445 kts 239°
2026-05-07 16:24 46.18222 5.62626 29987 ft 446 kts 239°
2026-05-07 16:25 46.14697 5.55245 29988 ft 446 kts 239°
2026-05-07 16:25 46.11199 5.47936 29990 ft 446 kts 239°
2026-05-07 16:26 46.07676 5.40594 29990 ft 446 kts 239°
2026-05-07 16:26 46.04149 5.33266 29992 ft 446 kts 239°
2026-05-07 16:27 46.00606 5.25920 29996 ft 446 kts 239°
2026-05-07 16:27 45.97076 5.18621 29996 ft 446 kts 239°
2026-05-07 16:28 45.93525 5.11300 29995 ft 446 kts 239°
2026-05-07 16:28 45.89957 5.03961 29995 ft 446 kts 239°
2026-05-07 16:29 45.86348 4.96569 29991 ft 441 kts 239°
2026-05-07 16:29 45.82819 4.89350 29991 ft 435 kts 240°
2026-05-07 16:30 45.79342 4.82252 29990 ft 429 kts 241°
2026-05-07 16:30 45.75928 4.75293 29989 ft 427 kts 241°
2026-05-07 16:31 45.72481 4.68289 29998 ft 427 kts 241°
2026-05-07 16:31 45.69509 4.61006 30026 ft 421 kts 249°
2026-05-07 16:32 45.66914 4.53522 30000 ft 421 kts 249°
2026-05-07 16:32 45.64328 4.46006 29986 ft 421 kts 249°
2026-05-07 16:33 45.61758 4.38548 29985 ft 421 kts 249°
2026-05-07 16:33 45.59148 4.31000 29996 ft 421 kts 249°
2026-05-07 16:34 45.56545 4.23489 29995 ft 421 kts 249°
2026-05-07 16:34 45.53969 4.16078 29995 ft 421 kts 249°
2026-05-07 16:35 45.51349 4.08561 29994 ft 421 kts 249°
2026-05-07 16:35 45.48745 4.01109 29993 ft 421 kts 249°
2026-05-07 16:36 45.46124 3.93631 29992 ft 421 kts 249°
2026-05-07 16:36 45.43507 3.86185 29992 ft 421 kts 249°
2026-05-07 16:37 45.40868 3.78698 29991 ft 421 kts 249°
2026-05-07 16:37 45.38234 3.71245 29990 ft 421 kts 249°
2026-05-07 16:38 45.35603 3.63823 29989 ft 421 kts 249°
2026-05-07 16:38 45.32948 3.56353 29989 ft 421 kts 249°
2026-05-07 16:39 45.30314 3.48962 29988 ft 421 kts 249°
2026-05-07 16:39 45.27650 3.41507 29987 ft 421 kts 249°
2026-05-07 16:40 45.24992 3.34090 29989 ft 421 kts 248°
2026-05-07 16:40 45.22306 3.26615 30003 ft 422 kts 248°
2026-05-07 16:41 45.19616 3.19149 29996 ft 422 kts 248°
2026-05-07 16:41 45.16907 3.11652 29996 ft 422 kts 248°
2026-05-07 16:42 45.14201 3.04173 29989 ft 419 kts 248°
2026-05-07 16:42 45.11467 2.96647 29978 ft 416 kts 247°
2026-05-07 16:43 45.08733 2.89142 29969 ft 416 kts 246°
2026-05-07 16:43 45.05994 2.81654 29964 ft 417 kts 246°
2026-05-07 16:44 45.03235 2.74126 29963 ft 419 kts 246°
2026-05-07 16:44 45.00440 2.66515 29970 ft 421 kts 246°
2026-05-07 16:45 44.97646 2.58933 29963 ft 423 kts 246°
2026-05-07 16:45 44.94846 2.51350 29961 ft 423 kts 246°
2026-05-07 16:46 44.92039 2.43774 29961 ft 424 kts 246°
2026-05-07 16:46 44.89208 2.36152 29959 ft 424 kts 246°
2026-05-07 16:47 44.86339 2.28449 29981 ft 424 kts 246°
2026-05-07 16:47 44.83560 2.21009 29968 ft 424 kts 246°
2026-05-07 16:48 44.80764 2.13543 29967 ft 424 kts 246°
2026-05-07 16:48 44.77951 2.06052 29966 ft 424 kts 246°
2026-05-07 16:49 44.75178 1.98690 29966 ft 424 kts 246°
2026-05-07 16:49 44.72395 1.91317 29965 ft 423 kts 246°
2026-05-07 16:50 44.69581 1.83883 29964 ft 424 kts 246°
2026-05-07 16:50 44.66761 1.76454 29963 ft 424 kts 246°
2026-05-07 16:51 44.63964 1.69105 29962 ft 424 kts 246°
2026-05-07 16:51 44.61158 1.61753 29962 ft 424 kts 246°
2026-05-07 16:52 44.58286 1.54244 29961 ft 424 kts 246°
2026-05-07 16:52 44.55472 1.46912 30058 ft 424 kts 246°
2026-05-07 16:53 44.52693 1.39688 29964 ft 424 kts 246°
2026-05-07 16:53 44.49900 1.32447 29970 ft 424 kts 245°
2026-05-07 16:54 44.47089 1.25176 29968 ft 425 kts 245°
2026-05-07 16:54 44.44412 1.17827 29963 ft 423 kts 247°
2026-05-07 16:55 44.41829 1.10543 29952 ft 420 kts 247°
2026-05-07 16:55 44.39227 1.03217 29944 ft 419 kts 246°
2026-05-07 16:56 44.36640 0.95950 29939 ft 416 kts 246°
2026-05-07 16:56 44.32771 0.85129 29937 ft 417 kts 246°
2026-05-07 16:57 44.30185 0.77916 29936 ft 416 kts 246°
2026-05-07 16:57 44.27586 0.70686 29936 ft 416 kts 246°
2026-05-07 16:58 44.24993 0.63496 29934 ft 417 kts 246°
2026-05-07 16:58 44.22403 0.56329 29933 ft 417 kts 246°
2026-05-07 16:59 44.19802 0.49147 29933 ft 417 kts 246°
2026-05-07 16:59 44.17186 0.41952 29932 ft 417 kts 246°
2026-05-07 17:00 44.14571 0.34766 29931 ft 417 kts 246°
2026-05-07 17:00 44.11948 0.27586 29941 ft 417 kts 246°
2026-05-07 17:01 44.09317 0.20396 29941 ft 417 kts 245°
2026-05-07 17:01 44.06697 0.13259 29940 ft 416 kts 245°
2026-05-07 17:02 44.04066 0.06112 29939 ft 417 kts 246°
2026-05-07 17:02 44.01421 -0.01058 29938 ft 417 kts 246°
2026-05-07 17:03 43.98786 -0.08177 29938 ft 417 kts 246°
2026-05-07 17:03 43.96145 -0.15302 29937 ft 416 kts 246°
2026-05-07 17:04 43.93489 -0.22447 29936 ft 416 kts 246°
2026-05-07 17:04 43.90842 -0.29544 29935 ft 416 kts 246°
2026-05-07 17:05 43.88174 -0.36683 29935 ft 417 kts 246°
2026-05-07 17:05 43.85516 -0.43777 29934 ft 416 kts 245°
2026-05-07 17:06 43.82837 -0.50909 29933 ft 416 kts 245°
2026-05-07 17:06 43.80174 -0.57983 29933 ft 417 kts 246°
2026-05-07 17:07 43.77488 -0.65091 29932 ft 416 kts 245°
2026-05-07 17:07 43.74820 -0.72140 29942 ft 417 kts 245°
2026-05-07 17:08 43.72128 -0.79236 29936 ft 417 kts 245°
2026-05-07 17:08 43.69430 -0.86330 29926 ft 416 kts 245°
2026-05-07 17:09 43.66750 -0.93354 29919 ft 417 kts 245°
2026-05-07 17:09 43.64054 -1.00409 29912 ft 416 kts 245°
2026-05-07 17:10 43.61353 -1.07454 29911 ft 414 kts 245°
2026-05-07 17:10 43.58660 -1.14462 29910 ft 412 kts 245°
2026-05-07 17:11 43.55988 -1.21399 29909 ft 410 kts 245°
2026-05-07 17:11 43.53315 -1.28321 29909 ft 410 kts 245°
2026-05-07 17:12 43.50631 -1.35255 29907 ft 410 kts 245°
2026-05-07 17:12 43.47944 -1.42177 29907 ft 410 kts 245°
2026-05-07 17:13 43.45259 -1.49081 29904 ft 410 kts 245°
2026-05-07 17:13 43.42568 -1.55983 29899 ft 410 kts 245°
2026-05-07 17:14 43.39876 -1.62868 29890 ft 411 kts 245°
2026-05-07 17:14 43.37167 -1.69781 29891 ft 411 kts 244°
2026-05-07 17:15 43.34260 -1.76512 29894 ft 413 kts 240°
2026-05-07 17:15 43.31101 -1.83031 29882 ft 414 kts 238°
2026-05-07 17:16 43.27639 -1.89358 29886 ft 414 kts 237°
2026-05-07 17:16 43.24176 -1.95638 29885 ft 415 kts 237°
2026-05-07 17:17 43.20702 -2.01923 29884 ft 414 kts 237°
2026-05-07 17:17 43.17220 -2.08209 29884 ft 414 kts 237°
2026-05-07 17:18 43.13753 -2.14455 29882 ft 415 kts 237°
2026-05-07 17:18 43.10259 -2.20734 29885 ft 414 kts 237°
2026-05-07 17:19 43.06791 -2.26957 29891 ft 414 kts 237°
2026-05-07 17:19 43.03302 -2.33202 29897 ft 414 kts 237°
2026-05-07 17:20 42.99774 -2.39512 29904 ft 419 kts 236°
2026-05-07 17:20 42.96217 -2.45851 29906 ft 424 kts 235°
2026-05-07 17:21 42.92608 -2.52269 29905 ft 430 kts 234°
2026-05-07 17:21 42.88954 -2.58751 29908 ft 435 kts 234°
2026-05-07 17:22 42.85271 -2.65267 29908 ft 437 kts 233°
2026-05-07 17:22 42.81558 -2.71826 29915 ft 437 kts 233°
2026-05-07 17:23 42.77874 -2.78320 29914 ft 437 kts 233°
2026-05-07 17:23 42.74161 -2.84851 29914 ft 437 kts 233°
2026-05-07 17:24 42.70497 -2.91410 29913 ft 436 kts 234°
2026-05-07 17:24 42.66840 -2.97983 29913 ft 436 kts 234°
2026-05-07 17:25 42.63187 -3.04536 29912 ft 436 kts 234°
2026-05-07 17:25 42.59532 -3.11079 29911 ft 436 kts 234°
2026-05-07 17:26 42.55885 -3.17596 29915 ft 436 kts 234°
2026-05-07 17:26 42.52259 -3.24056 29643 ft 423 kts 234°
2026-05-07 17:27 42.50510 -3.27169 29130 ft 415 kts 234°
2026-05-07 17:27 42.48764 -3.30273 28607 ft 406 kts 234°
2026-05-07 17:27 42.47084 -3.33256 28099 ft 401 kts 234°
2026-05-07 17:27 42.45403 -3.36240 27592 ft 398 kts 234°
2026-05-07 17:28 42.43724 -3.39216 27090 ft 399 kts 234°
2026-05-07 17:28 42.42035 -3.42206 26620 ft 410 kts 234°
2026-05-07 17:28 42.40296 -3.45283 26123 ft 414 kts 234°
2026-05-07 17:28 42.38539 -3.48386 25619 ft 414 kts 234°
2026-05-07 17:29 42.36791 -3.51472 25117 ft 415 kts 234°
2026-05-07 17:29 42.35052 -3.54538 24621 ft 416 kts 234°
2026-05-07 17:29 42.33279 -3.57661 24117 ft 417 kts 234°
2026-05-07 17:29 42.31533 -3.60735 23623 ft 419 kts 234°
2026-05-07 17:30 42.29753 -3.63863 23121 ft 421 kts 234°
2026-05-07 17:30 42.27971 -3.66991 22627 ft 422 kts 233°
2026-05-07 17:30 42.26177 -3.70138 22134 ft 424 kts 233°
2026-05-07 17:30 42.24378 -3.73292 21642 ft 425 kts 233°
2026-05-07 17:31 42.22591 -3.76420 21154 ft 427 kts 233°
2026-05-07 17:31 42.20783 -3.79581 20676 ft 428 kts 233°
2026-05-07 17:31 42.18955 -3.82774 20229 ft 429 kts 233°
2026-05-07 17:31 42.17144 -3.85933 19770 ft 427 kts 233°
2026-05-07 17:32 42.15328 -3.89099 19243 ft 424 kts 233°
2026-05-07 17:32 42.13541 -3.92211 18613 ft 421 kts 233°
2026-05-07 17:32 42.11769 -3.95294 17985 ft 417 kts 233°
2026-05-07 17:32 42.10019 -3.98334 17358 ft 413 kts 233°
2026-05-07 17:33 42.08256 -4.01396 16723 ft 409 kts 233°
2026-05-07 17:33 42.06529 -4.04390 16096 ft 406 kts 233°
2026-05-07 17:33 42.04816 -4.07358 15471 ft 403 kts 233°
2026-05-07 17:33 42.03131 -4.10326 14835 ft 400 kts 236°
2026-05-07 17:34 42.01682 -4.13505 14122 ft 399 kts 240°
2026-05-07 17:34 42.00291 -4.16688 13255 ft 397 kts 240°
2026-05-07 17:34 41.98919 -4.19863 12399 ft 392 kts 240°
2026-05-07 17:34 41.97569 -4.22994 11546 ft 388 kts 240°
2026-05-07 17:35 41.96225 -4.26128 10933 ft 377 kts 239°
2026-05-07 17:35 41.94959 -4.29050 10867 ft 354 kts 239°
2026-05-07 17:35 41.93751 -4.31843 10705 ft 337 kts 239°
2026-05-07 17:35 41.92851 -4.33924 10584 ft 325 kts 239°
2026-05-07 17:36 41.91742 -4.36488 10391 ft 312 kts 239°
2026-05-07 17:36 41.90682 -4.38935 10174 ft 301 kts 239°
2026-05-07 17:36 41.89646 -4.41329 10063 ft 288 kts 239°
2026-05-07 17:36 41.88658 -4.43605 9794 ft 282 kts 239°
2026-05-07 17:37 41.87683 -4.45856 9376 ft 282 kts 238°
2026-05-07 17:37 41.86686 -4.48144 9034 ft 279 kts 238°
2026-05-07 17:37 41.85714 -4.50387 8700 ft 276 kts 238°
2026-05-07 17:37 41.84752 -4.52591 8365 ft 274 kts 238°
2026-05-07 17:38 41.83792 -4.54802 8026 ft 272 kts 238°
2026-05-07 17:38 41.82845 -4.56972 7702 ft 270 kts 238°
2026-05-07 17:38 41.81899 -4.59144 7371 ft 269 kts 237°
2026-05-07 17:38 41.80952 -4.61315 7035 ft 268 kts 237°
2026-05-07 17:39 41.80034 -4.63419 6814 ft 254 kts 237°
2026-05-07 17:39 41.79159 -4.65422 6487 ft 245 kts 237°
2026-05-07 17:39 41.78305 -4.67375 6175 ft 241 kts 236°
2026-05-07 17:39 41.77461 -4.69302 5864 ft 237 kts 236°
2026-05-07 17:40 41.76654 -4.71147 5665 ft 226 kts 237°
2026-05-07 17:40 41.75876 -4.72924 5457 ft 217 kts 237°
2026-05-07 17:40 41.75117 -4.74654 5244 ft 210 kts 237°
2026-05-07 17:40 41.74392 -4.76312 5053 ft 204 kts 236°
2026-05-07 17:41 41.73683 -4.77923 4999 ft 200 kts 236°
2026-05-07 17:41 41.72979 -4.79529 5005 ft 202 kts 236°
2026-05-07 17:41 41.72511 -4.80592 5007 ft 204 kts 236°
2026-05-07 17:41 41.71795 -4.82222 5002 ft 206 kts 236°
2026-05-07 17:42 41.71067 -4.83874 5001 ft 207 kts 237°
2026-05-07 17:42 41.70440 -4.85595 4980 ft 206 kts 250°
2026-05-07 17:42 41.70081 -4.87474 4851 ft 206 kts 252°
2026-05-07 17:42 41.69676 -4.89286 4792 ft 203 kts 250°
2026-05-07 17:43 41.69275 -4.91092 4693 ft 203 kts 252°
2026-05-07 17:43 41.68864 -4.92941 4516 ft 209 kts 251°
2026-05-07 17:43 41.68457 -4.94790 4496 ft 205 kts 251°
2026-05-07 17:43 41.68060 -4.96608 4438 ft 204 kts 252°
2026-05-07 17:44 41.67488 -4.98299 4445 ft 198 kts 229°
2026-05-07 17:44 41.66440 -4.99466 4377 ft 195 kts 202°
2026-05-07 17:44 41.65184 -4.99900 4395 ft 184 kts 178°
2026-05-07 17:44 41.63999 -4.99524 4392 ft 174 kts 146°
2026-05-07 17:45 41.63300 -4.98295 4325 ft 169 kts 102°
2026-05-07 17:45 41.63430 -4.96749 4230 ft 172 kts 70°
2026-05-07 17:45 41.63960 -4.95312 4181 ft 170 kts 60°
2026-05-07 17:45 41.64621 -4.94089 4102 ft 155 kts 55°
2026-05-07 17:46 41.65247 -4.92966 3949 ft 149 kts 55°
2026-05-07 17:46 41.65889 -4.91860 3714 ft 150 kts 55°
2026-05-07 17:46 41.66532 -4.90790 3581 ft 146 kts 51°
2026-05-07 17:46 41.67237 -4.89826 3417 ft 146 kts 46°
2026-05-07 17:47 41.67948 -4.88866 3279 ft 145 kts 47°
2026-05-07 17:47 41.68650 -4.87917 3095 ft 145 kts 47°
2026-05-07 17:47 41.69357 -4.86943 2922 ft 146 kts 47°
2026-05-07 17:47 41.70062 -4.85984 2773 ft 136 kts 44°
2026-05-07 17:48 41.70607 -4.85249 2777 ft 82 kts 44°
2026-05-07 17:48 41.70911 -4.84838 2776 ft 53 kts 46°
2026-05-07 17:48 41.71138 -4.84532 2777 ft 28 kts 40°
2026-05-07 17:48 41.71261 -4.84518 2779 ft 14 kts 319°
2026-05-07 17:49 41.71265 -4.84607 2779 ft 7 kts 238°
2026-05-07 17:49 41.71234 -4.84656 2779 ft 6 kts 227°
2026-05-07 17:49 41.71194 -4.84710 2778 ft 9 kts 225°
2026-05-07 17:49 41.71145 -4.84775 2779 ft 9 kts 221°
2026-05-07 17:50 41.71101 -4.84836 2779 ft 9 kts 228°
2026-05-07 17:50 41.71041 -4.84866 2778 ft 10 kts 167°
2026-05-07 17:50 41.70959 -4.84848 2777 ft 14 kts 171°
2026-05-07 17:50 41.70869 -4.84784 2775 ft 14 kts 138°
2026-05-07 17:51 41.70802 -4.84697 2774 ft 11 kts 134°
2026-05-07 17:51 41.70751 -4.84629 2774 ft 8 kts 135°
2026-05-07 17:51 41.70730 -4.84602 2774 ft 0 kts 135°
2026-05-07 17:51 41.70726 -4.84596 2774 ft 1 kts 135°
2026-05-07 17:52 41.70714 -4.84576 2774 ft 3 kts 120°
2026-05-07 17:52 41.70693 -4.84553 2774 ft 2 kts 155°
2026-05-07 17:52 41.70685 -4.84548 2774 ft 1 kts 159°
2026-05-07 17:52 41.70665 -4.84540 2774 ft 2 kts 163°
2026-05-07 17:53 41.70657 -4.84537 2774 ft 0 kts 163°
2026-05-07 17:53 41.70655 -4.84538 2774 ft 0 kts 198°
2026-05-07 17:53 41.70652 -4.84542 2774 ft 0 kts 239°
2026-05-07 17:54 41.70650 -4.84556 2774 ft 0 kts 256°